User: anonymous
Location: Prairie State College
(41.5244°N, 87.6382°W)
Time: 14:52:35
(UTC-05:00)
Language:

ARGOS Delta rocket - Orbit

View from above orbital plane
View from above orbital plane
View from above satellite
View from above satellite

Ground track
Ground track

The orbit data is extracted from the following two-line orbital elements,

1 25637U 99008D   14273.44413980  .00000968  00000-0  24711-3 0  6010
2 25637 096.4834 030.5954 0143994 191.5556 220.0783 14.45964765822406
Epoch (UTC): 30 September 2014 10:39:33
Eccentricity: 0.0143994
inclination: 96.4834°
perigee height: 636 km
apogee height: 841 km
right ascension of ascending node: 30.5954°
argument of perigee: 191.5556°
revolutions per day: 14.45964765
mean anomaly at epoch: 220.0783°
orbit number at epoch: 82240

The dashed part of the orbit path shows where the satellite is in the earth's shadow,  

DLR